This is the latest recevied weather packets stored in our database for station/object N4NVD-13. If no packets are shown the sender has not sent any weather packets the latest 1 day(s).
| Time | Temp. | Humidity | Pressure | Rain* | Wind** | Luminosity | Snow |
|---|---|---|---|---|---|---|---|
| 1778041635 | 24.44° C | 96% | 1007.6 hPa | 0 mm | 0 m/s | 0 W/m² | - |
| 1778041333 | 24.44° C | 96% | 1007.5 hPa | 0 mm | 0 m/s | 0 W/m² | - |
| 1778041031 | 24.44° C | 95% | 1007.7 hPa | 0 mm | 0 m/s | 0 W/m² | - |
| 1778040728 | 24.44° C | 95% | 1007.5 hPa | 0 mm | 0 m/s | 0 W/m² | - |
| 1778040425 | 24.44° C | 95% | 1007.5 hPa | 0 mm | 1.79 m/s, 206° | 0 W/m² | - |
| 1778040121 | 24.44° C | 95% | 1007.5 hPa | 0 mm | 0.45 m/s, 209° | 0 W/m² | - |
| 1778039813 | 24.44° C | 95% | 1007.5 hPa | 0 mm | 0.89 m/s, 201° | 0 W/m² | - |
| 1778039509 | 24.44° C | 95% | 1007.3 hPa | 0 mm | 1.34 m/s, 159° | 0 W/m² | - |
| 1778039206 | 24.44° C | 95% | 1007.2 hPa | 0 mm | 0.89 m/s, 159° | 0 W/m² | - |
| 1778038903 | 24.44° C | 95% | 1007 hPa | 0 mm | 0 m/s | 0 W/m² | - |
| 1778038601 | 24.44° C | 95% | 1006.9 hPa | 0 mm | 0 m/s | 0 W/m² | - |
| 1778038297 | 24.44° C | 95% | 1007 hPa | 0 mm | 1.34 m/s, 133° | 0 W/m² | - |
| 1778037994 | 24.44° C | 94% | 1006.9 hPa | 0 mm | 1.34 m/s, 152° | 0 W/m² | - |
| 1778037692 | 25° C | 94% | 1006.9 hPa | 0 mm | 0.89 m/s, 199° | 0 W/m² | - |
| 1778037388 | 25° C | 94% | 1007 hPa | 0 mm | 1.79 m/s, 201° | 0 W/m² | - |
| 1778037085 | 25° C | 94% | 1006.6 hPa | 0 mm | 1.79 m/s, 180° | 0 W/m² | - |
| 1778036784 | 25° C | 93% | 1006.6 hPa | 0 mm | 3.13 m/s, 223° | 0 W/m² | - |
| 1778036481 | 25° C | 93% | 1006.5 hPa | 0 mm | 0 m/s | 0 W/m² | - |
| 1778036178 | 25° C | 93% | 1006.4 hPa | 0 mm | 3.58 m/s, 158° | 0 W/m² | - |
| 1778035874 | 25° C | 93% | 1006.5 hPa | 0 mm | 2.68 m/s, 158° | 0 W/m² | - |
| 1778035572 | 25° C | 92% | 1006.3 hPa | 0 mm | 1.79 m/s, 213° | 0 W/m² | - |
| 1778035267 | 25° C | 92% | 1006.3 hPa | 0 mm | 1.79 m/s, 154° | 0 W/m² | - |
| 1778034964 | 25° C | 92% | 1006.5 hPa | 0 mm | 2.24 m/s, 180° | 0 W/m² | - |
| 1778034661 | 25.56° C | 91% | 1006.1 hPa | 0 mm | 2.68 m/s, 162° | 0 W/m² | - |
| 1778034358 | 25.56° C | 91% | 1006.4 hPa | 0 mm | 0.89 m/s, 180° | 0 W/m² | - |
* Rain latest hour (hover to see other rain measurements)
** Current wind speed in m/s (hover to see current wind gust speed)